WZZ4MN LGAV-EPGD

Flight info

Callsign WZZ4MN
Flight time N/A
Altitude 23000
Route ATV UM749 SKP UL617 MAKED L617 RAXAD DCT PARAK DCT KEKED N133 KSC B7 LENOV N133 GRUDA Z95 OSLOG
Aircraft A21N/M-SDE1E2E3FGIJ1J4RWXY/LB1

Departure

Time 2026-05-06 14:37
Airport Athens Eleftherios Venizelos International Airport (LGAV)

Arrival

Time N/A
Airport Gdańsk Lech Wałęsa Airport (EPGD)
Time Latitude Longitude Altitude Speed Heading
2026-05-06 14:02 37.93014 23.94321 289 ft 0 kts 37°
2026-05-06 14:23 37.93013 23.94320 289 ft 1 kts 38°
2026-05-06 14:24 37.93001 23.94308 289 ft 2 kts 37°
2026-05-06 14:24 37.92989 23.94297 289 ft 2 kts 38°
2026-05-06 14:24 37.92977 23.94285 289 ft 2 kts 37°
2026-05-06 14:24 37.92965 23.94274 289 ft 2 kts 37°
2026-05-06 14:25 37.92955 23.94260 289 ft 2 kts 71°
2026-05-06 14:25 37.92954 23.94241 289 ft 2 kts 101°
2026-05-06 14:25 37.92957 23.94228 289 ft 0 kts 123°
2026-05-06 14:25 37.92961 23.94221 289 ft 0 kts 127°
2026-05-06 14:26 37.92962 23.94221 289 ft 0 kts 127°
2026-05-06 14:29 37.92957 23.94229 289 ft 2 kts 127°
2026-05-06 14:29 37.92938 23.94261 289 ft 6 kts 127°
2026-05-06 14:29 37.92905 23.94315 289 ft 9 kts 126°
2026-05-06 14:29 37.92884 23.94397 288 ft 10 kts 70°
2026-05-06 14:30 37.92954 23.94479 288 ft 17 kts 36°
2026-05-06 14:30 37.93066 23.94583 288 ft 22 kts 37°
2026-05-06 14:30 37.93204 23.94713 288 ft 25 kts 36°
2026-05-06 14:30 37.93339 23.94843 288 ft 24 kts 38°
2026-05-06 14:31 37.93473 23.94970 288 ft 23 kts 36°
2026-05-06 14:31 37.93605 23.95095 288 ft 24 kts 38°
2026-05-06 14:31 37.93746 23.95229 288 ft 27 kts 37°
2026-05-06 14:31 37.93900 23.95375 288 ft 27 kts 37°
2026-05-06 14:32 37.94045 23.95513 288 ft 25 kts 37°
2026-05-06 14:32 37.94185 23.95646 288 ft 24 kts 37°
2026-05-06 14:32 37.94312 23.95767 288 ft 16 kts 37°
2026-05-06 14:32 37.94367 23.95840 288 ft 9 kts 81°
2026-05-06 14:33 37.94354 23.95923 288 ft 9 kts 85°
2026-05-06 14:33 37.94399 23.95991 288 ft 12 kts 37°
2026-05-06 14:33 37.94484 23.96071 288 ft 17 kts 37°
2026-05-06 14:33 37.94593 23.96176 288 ft 21 kts 37°
2026-05-06 14:34 37.94725 23.96300 288 ft 25 kts 37°
2026-05-06 14:34 37.94871 23.96440 288 ft 26 kts 37°
2026-05-06 14:34 37.95015 23.96576 287 ft 24 kts 37°
2026-05-06 14:34 37.95150 23.96703 287 ft 23 kts 36°
2026-05-06 14:35 37.95276 23.96822 287 ft 21 kts 37°
2026-05-06 14:35 37.95370 23.96913 287 ft 10 kts 44°
2026-05-06 14:35 37.95377 23.96999 287 ft 9 kts 127°
2026-05-06 14:35 37.95314 23.97026 287 ft 10 kts 171°
2026-05-06 14:36 37.95246 23.97042 287 ft 7 kts 160°
2026-05-06 14:36 37.95209 23.97037 287 ft 6 kts 211°
2026-05-06 14:36 37.95065 23.96900 287 ft 58 kts 217°
2026-05-06 14:36 37.94548 23.96409 288 ft 124 kts 217°
2026-05-06 14:37 37.93704 23.95604 328 ft 173 kts 217°
2026-05-06 14:37 37.92747 23.94717 992 ft 170 kts 212°
2026-05-06 14:37 37.91701 23.94057 1726 ft 170 kts 204°
2026-05-06 14:37 37.90646 23.93450 2342 ft 166 kts 205°
2026-05-06 14:38 37.89603 23.92841 2819 ft 166 kts 205°
2026-05-06 14:38 37.88526 23.92196 3097 ft 178 kts 206°
2026-05-06 14:38 37.87375 23.91472 3436 ft 188 kts 207°
2026-05-06 14:38 37.86190 23.90682 3733 ft 201 kts 208°
2026-05-06 14:39 37.84919 23.89816 4071 ft 213 kts 213°
2026-05-06 14:39 37.83951 23.88354 4314 ft 229 kts 250°
2026-05-06 14:39 37.83842 23.86266 4504 ft 250 kts 285°
2026-05-06 14:39 37.84063 23.85473 4606 ft 257 kts 297°